This is the latest recevied weather packets stored in our database for station/object YO8SDE-8. If no packets are shown the sender has not sent any weather packets the latest 10 day(s).
| Time | Temp. | Humidity | Pressure | Rain* | Wind** | Luminosity | Snow |
|---|---|---|---|---|---|---|---|
| 1778149257 | 30° C | 35% | 1001.7 hPa | 0 mm | - | - | - |
| 1778148957 | 29.44° C | 35% | 1001.5 hPa | 0 mm | - | - | - |
| 1778148657 | 30° C | 36% | 1001.7 hPa | 0 mm | - | - | - |
| 1778148357 | 30° C | 36% | 1001.8 hPa | 0 mm | - | - | - |
| 1778148057 | 30° C | 36% | 1001.7 hPa | 0 mm | - | - | - |
| 1778147757 | 29.44° C | 37% | 1001.8 hPa | 0 mm | - | - | - |
| 1778147457 | 29.44° C | 37% | 1001.8 hPa | 0 mm | - | - | - |
| 1778147157 | 28.89° C | 37% | 1001.9 hPa | 0 mm | - | - | - |
| 1778146857 | 29.44° C | 36% | 1001.8 hPa | 0 mm | - | - | - |
| 1778146557 | 29.44° C | 37% | 1001.9 hPa | 0 mm | - | - | - |
| 1778146257 | 29.44° C | 37% | 1001.9 hPa | 0 mm | - | - | - |
| 1778145957 | 29.44° C | 37% | 1001.9 hPa | 0 mm | - | - | - |
| 1778145657 | 29.44° C | 37% | 1002 hPa | 0 mm | - | - | - |
| 1778145357 | 30° C | 37% | 1002 hPa | 0 mm | - | - | - |
| 1778145057 | 30° C | 37% | 1002.1 hPa | 0 mm | - | - | - |
| 1778144757 | 29.44° C | 37% | 1002.2 hPa | 0 mm | - | - | - |
| 1778144457 | 28.89° C | 39% | 1002.2 hPa | 0 mm | - | - | - |
| 1778144157 | 28.33° C | 39% | 1002.2 hPa | 0 mm | - | - | - |
| 1778143857 | 28.89° C | 39% | 1002.2 hPa | 0 mm | - | - | - |
| 1778143557 | 28.89° C | 39% | 1002.2 hPa | 0 mm | - | - | - |
| 1778143257 | 28.89° C | 38% | 1002.2 hPa | 0 mm | - | - | - |
| 1778142957 | 28.89° C | 38% | 1002.2 hPa | 0 mm | - | - | - |
| 1778142657 | 28.89° C | 38% | 1002.1 hPa | 0 mm | - | - | - |
| 1778142357 | 28.89° C | 39% | 1002.2 hPa | 0 mm | - | - | - |
| 1778142057 | 28.33° C | 40% | 1002.2 hPa | 0 mm | - | - | - |
* Rain latest hour (hover to see other rain measurements)
** Current wind speed in m/s (hover to see current wind gust speed)